EW9776 Weather Reports


Display with metric or nautical units.
time (UTC)temp
F
wind
direction
speed
MPH
gust
MPH
rain 1hr
in
rain 24hr
in
rain mn
in
humidity
%
barometer
mb
20260831140036 47 180 2.0 3.0 0.00 0.00 0.00 92 1016.1
20260831134537 47 180 0.0 2.0 0.00 0.00 0.00 92 1016.0
20260831133038 47 180 2.0 3.0 0.00 0.00 0.00 93 1016.1
20260831131533 46 180 2.0 4.0 0.00 0.00 0.00 94 1016.1
20260831130035 46 194 2.0 3.0 0.00 0.00 0.00 94 1016.1
20260831123033 46 180 2.0 4.0 0.00 0.00 0.00 93 1016.0
20260831121532 45 180 2.0 3.0 0.00 0.00 0.00 92 1015.9
20260831120035 46 180 2.0 3.0 0.00 0.00 0.00 91 1016.1
20260831114535 46 180 2.0 3.0 0.00 0.00 0.00 91 1016.1
20260831111531 47 180 1.0 3.0 0.00 0.00 0.00 90 1016.2
20260831110035 47 154 0.0 2.0 0.00 0.00 0.00 89 1016.2
20260831104649 48 180 2.0 3.0 0.00 0.00 0.00 87 1016.2
20260831103034 49 180 0.0 2.0 0.00 0.00 0.00 85 1016.3
20260831101609 49 180 0.0 2.0 0.00 0.00 0.00 83 1016.3
20260831100033 50 180 2.0 3.0 0.00 0.00 0.00 81 1016.4
20260831094537 51 182 2.0 4.0 0.00 0.00 0.00 79 1016.6
20260831093034 51 186 3.0 5.0 0.00 0.00 0.00 79 1016.6
20260831091535 51 180 3.0 5.0 0.00 0.00 0.00 80 1016.7
20260831090034 52 180 1.0 2.0 0.00 0.00 0.00 77 1016.7
20260831081532 51 180 4.0 7.0 0.00 0.00 0.00 84 1017.1
20260831080033 51 180 3.0 4.0 0.00 0.00 0.00 81 1017.0
20260831074536 52 180 3.0 4.0 0.00 0.00 0.00 79 1017.2
20260831073152 51 180 2.0 4.0 0.00 0.00 0.00 80 1017.2
20260831071535 51 180 3.0 5.0 0.00 0.00 0.00 81 1017.3
20260831070031 51 162 2.0 3.0 0.00 0.00 0.00 81 1017.3
20260831064537 53 180 1.0 3.0 0.00 0.00 0.00 75 1017.4
20260831061535 55 165 1.0 3.0 0.00 0.00 0.00 71 1017.5
20260831060038 57 170 1.0 4.0 0.00 0.00 0.00 67 1017.5
20260831053036 59 70 0.0 4.0 0.00 0.00 0.00 62 1017.7
20260831051536 60 129 2.0 7.0 0.00 0.00 0.00 61 1017.7
20260831050036 59 188 4.0 7.0 0.00 0.00 0.00 63 1017.7
20260831044532 59 186 4.0 7.0 0.00 0.00 0.00 63 1017.7
20260831043034 60 195 4.0 6.0 0.00 0.00 0.00 62 1017.7
20260831041537 61 200 5.0 7.0 0.00 0.00 0.00 60 1017.8
20260831034534 61 187 4.0 7.0 0.00 0.00 0.00 61 1017.6
20260831033035 60 179 2.0 6.0 0.00 0.00 0.00 63 1017.5
20260831031536 61 138 0.0 3.0 0.00 0.00 0.00 64 1017.5
20260831030035 62 178 2.0 4.0 0.00 0.00 0.00 65 1017.4
20260831024536 66 202 0.0 3.0 0.00 0.00 0.00 61 1017.4
20260831023036 70 206 2.0 3.0 0.00 0.00 0.00 56 1017.3
20260831020112 73 282 0.0 2.0 0.00 0.00 0.00 47 1017.3
20260831014535 73 345 2.0 5.0 0.00 0.00 0.00 44 1017.4
20260831013034 73 337 2.0 5.0 0.00 0.00 0.00 43 1017.5
20260831011608 73 341 3.0 9.0 0.00 0.00 0.00 42 1017.5
20260831010033 73 336 4.0 9.0 0.00 0.00 0.00 41 1017.5
20260831004610 74 340 4.0 10.0 0.00 0.00 0.00 40 1017.6
20260831003153 74 336 4.0 9.0 0.00 0.00 0.00 40 1017.6
20260831001534 74 332 5.0 10.0 0.00 0.00 0.00 39 1017.7
20260831000109 73 333 5.0 9.0 0.00 0.00 0.00 39 1017.8
20260830234537 74 329 5.0 10.0 0.00 0.00 0.00 39 1018.1
20260830231534 74 337 3.0 9.0 0.00 0.00 0.00 39 1018.1
20260830230148 74 39 4.0 10.0 0.00 0.00 0.00 40 1018.2
20260830224533 73 23 3.0 8.0 0.00 0.00 0.00 41 1018.5
20260830223111 73 25 6.0 9.0 0.00 0.00 0.00 42 1018.7
20260830221535 73 32 4.0 10.0 0.00 0.00 0.00 42 1018.8
20260830220037 72 21 3.0 11.0 0.00 0.00 0.00 44 1019.0
20260830214534 71 13 4.0 9.0 0.00 0.00 0.00 45 1019.3
20260830213036 70 35 5.0 10.0 0.00 0.00 0.00 45 1019.4
20260830211642 70 32 3.0 8.0 0.00 0.00 0.00 46 1019.5
20260830210030 69 20 4.0 9.0 0.00 0.00 0.00 48 1019.6
20260830204609 69 25 3.0 8.0 0.00 0.00 0.00 49 1019.9
20260830203036 68 38 5.0 11.0 0.00 0.00 0.00 50 1020.1
20260830201536 68 22 5.0 11.0 0.00 0.00 0.00 50 1020.2
20260830200154 67 19 4.0 9.0 0.00 0.00 0.00 50 1020.4
20260830194535 66 7 5.0 10.0 0.00 0.00 0.00 53 1020.5
20260830193141 67 29 4.0 11.0 0.00 0.00 0.00 51 1020.5
20260830184535 65 34 4.0 11.0 0.00 0.00 0.00 55 1021.1
20260830183036 64 10 5.0 10.0 0.00 0.00 0.00 55 1021.2
20260830181535 64 38 4.0 9.0 0.00 0.00 0.00 55 1021.2
20260830180035 64 18 4.0 8.0 0.00 0.00 0.00 57 1021.2
20260830174641 62 35 5.0 10.0 0.00 0.00 0.00 59 1021.2
20260830173035 62 25 5.0 11.0 0.00 0.00 0.00 61 1021.3
20260830171534 61 22 6.0 10.0 0.00 0.00 0.00 62 1021.3
20260830170034 60 17 5.0 9.0 0.00 0.00 0.00 64 1021.4
20260830164609 60 11 3.0 7.0 0.00 0.00 0.00 64 1021.5
20260830163033 59 15 3.0 7.0 0.00 0.00 0.00 66 1021.7
20260830160143 57 18 3.0 6.0 0.00 0.00 0.00 70 1022.0
20260830153031 55 40 3.0 6.0 0.00 0.00 0.00 72 1022.0
20260830144534 48 200 3.0 5.0 0.00 0.00 0.00 81 1022.1
20260830143036 47 177 2.0 6.0 0.00 0.00 0.00 82 1022.0